Fairmont, MN

1:07 PM CDT on July 23, 2016 (GMT -0500)
Fairmont Municipal

Weather History for KFRM - May, 2014

Change the Weather History Date:

Monday, May 12, 2014

  Actual Average Record
Temperature  
Mean Temperature 54 °F -  
Max Temperature 64 °F 67 °F 87 °F (1958)
Min Temperature 44 °F 45 °F 32 °F (1966)
Degree Days  
Heating Degree Days 11    
Growing Degree Days 4 (Base 50)    
Moisture  
Dew Point 48 °F    
Average Humidity 86    
Maximum Humidity 94    
Minimum Humidity 73    
Precipitation  
Precipitation 0.33 in - - ()
Sea Level Pressure  
Sea Level Pressure 29.78 in    
Wind  
Wind Speed 12 mph (NW)    
Max Wind Speed 25 mph    
Max Gust Speed 37 mph    
Visibility 7 miles    
Events Thunderstorm    
Averages and records for this station are not official NWS values.
T = Trace of Precipitation, MM = Missing Value Source: NWS Daily Summary

Daily Weather History Graph

Daily Weather History Graph

Search for Another Location

Airport or City:

Trip Planner

Search our weather history database for the weather conditions in past years. The results will help you decide how hot, cold, wet, or windy it might be!

Date:

Astronomy

May. 12, 2014 Rise Set
Actual Time 5:55 AM CDT 8:32 PM CDT
Civil Twilight 5:23 AM CDT 9:05 PM CDT
Nautical Twilight 4:42 AM CDT 9:46 PM CDT
Astronomical Twilight 3:55 AM CDT 10:34 PM CDT
Moon 6:27 PM CDT (5/12) 4:40 AM CDT (5/12)
Length of Visible Light 15h 42m
Length of Day
14h 36m
Waxing Gibbous, 95% of the Moon is Illuminated
May 12
Waxing Gibbous
May 14
Full
May 21
Last Quarter
May 28
New
Jun 5
First Quarter

Hourly Weather History & Observations

Time (CDT) Temp. Windchill Dew Point Humidity Pressure Visibility Wind Dir Wind Speed Gust Speed Precip Events Conditions
12:15 AM 62.6 °F - 55.4 °F 77% 29.70 in 10.0 mi South 20.7 mph 36.8 mph 0.02 in   Mostly Cloudy
12:35 AM 64.4 °F - 55.4 °F 73% 29.75 in 10.0 mi SSW 8.1 mph - 0.02 in   Mostly Cloudy
12:55 AM 62.6 °F - 55.4 °F 77% 29.74 in 10.0 mi South 9.2 mph - 0.02 in   Overcast
1:15 AM 60.8 °F - 55.4 °F 82% 29.72 in 10.0 mi SSE 5.8 mph - N/A   Overcast
1:35 AM 60.8 °F - 55.4 °F 82% 29.70 in 10.0 mi SSE 4.6 mph - N/A   Mostly Cloudy
1:55 AM 60.8 °F - 55.4 °F 82% 29.72 in 10.0 mi SSE 5.8 mph - N/A   Scattered Clouds
2:15 AM 60.8 °F - 55.4 °F 82% 29.72 in 10.0 mi SSE 6.9 mph - N/A   Clear
2:35 AM 60.8 °F - 55.4 °F 82% 29.71 in 10.0 mi SSE 6.9 mph - N/A   Scattered Clouds
2:55 AM 59.0 °F - 55.4 °F 88% 29.69 in 10.0 mi SE 6.9 mph - N/A   Partly Cloudy
3:15 AM 59.0 °F - 55.4 °F 88% 29.69 in 10.0 mi SSE 4.6 mph - N/A   Mostly Cloudy
3:35 AM 57.2 °F - 55.4 °F 94% 29.70 in 10.0 mi South 5.8 mph - N/A   Scattered Clouds
3:55 AM 57.2 °F - 55.4 °F 94% 29.69 in 10.0 mi Calm Calm - N/A   Scattered Clouds
4:15 AM 57.2 °F - 53.6 °F 88% 29.68 in 5.0 mi Calm Calm - N/A   Mostly Cloudy
4:35 AM 57.2 °F - 55.4 °F 94% 29.70 in 7.0 mi West 4.6 mph - N/A   Overcast
4:55 AM 57.2 °F - 55.4 °F 94% 29.70 in 2.0 mi NW 6.9 mph - N/A   Overcast
5:15 AM 57.2 °F - 53.6 °F 88% 29.70 in 1.2 mi WNW 6.9 mph - N/A   Overcast
5:35 AM 57.2 °F - 53.6 °F 88% 29.71 in 0.5 mi WNW 6.9 mph - N/A   Overcast
5:55 AM 57.2 °F - 53.6 °F 88% 29.71 in 0.5 mi WNW 9.2 mph - N/A   Overcast
6:15 AM 55.4 °F - 53.6 °F 94% 29.71 in 0.2 mi NW 11.5 mph - N/A   Overcast
6:35 AM 53.6 °F - 51.8 °F 94% 29.71 in 0.2 mi NW 11.5 mph - N/A   Overcast
6:55 AM 53.6 °F - 51.8 °F 94% 29.73 in 0.5 mi NW 9.2 mph - N/A   Overcast
7:15 AM 53.6 °F - 51.8 °F 94% 29.76 in 0.8 mi NW 12.7 mph - N/A   Overcast
7:35 AM 53.6 °F - 51.8 °F 94% 29.75 in 0.8 mi NW 11.5 mph - N/A   Overcast
7:55 AM 53.6 °F - 51.8 °F 94% 29.75 in 1.0 mi NNW 9.2 mph - N/A   Overcast
8:15 AM 53.6 °F - 50.0 °F 88% 29.74 in 0.5 mi North 4.6 mph - N/A   Overcast
8:35 AM 53.6 °F - 51.8 °F 94% 29.77 in 2.0 mi NNW 9.2 mph - 0.01 in Thunderstorm Overcast
9:15 AM 53.6 °F - 50.0 °F 88% 29.75 in 9.0 mi NNE 6.9 mph - 0.10 in   Overcast
9:35 AM 53.6 °F - 50.0 °F 88% 29.78 in 9.0 mi North - - 0.18 in   Overcast
9:55 AM 51.8 °F - 48.2 °F 88% 29.76 in 10.0 mi North 11.5 mph 17.3 mph 0.22 in   Overcast
10:15 AM 51.8 °F - 48.2 °F 88% 29.77 in 10.0 mi NNW 11.5 mph - 0.04 in   Overcast
10:35 AM 51.8 °F - 48.2 °F 88% 29.76 in 10.0 mi NW 15.0 mph - 0.04 in   Overcast
10:55 AM 51.8 °F - 46.4 °F 82% 29.77 in 10.0 mi NNW 12.7 mph - 0.05 in   Overcast
11:15 AM 50.0 °F - 46.4 °F 87% 29.78 in 10.0 mi NW 12.7 mph - N/A   Overcast
11:35 AM 50.0 °F - 46.4 °F 87% 29.80 in 10.0 mi NNW 11.5 mph - N/A   Overcast
11:55 AM 50.0 °F - 46.4 °F 87% 29.80 in 7.0 mi NW 15.0 mph 19.6 mph N/A   Overcast
12:15 PM 50.0 °F - 46.4 °F 87% 29.79 in 4.0 mi NNW 12.7 mph - N/A   Overcast
12:35 PM 50.0 °F - 46.4 °F 87% 29.79 in 4.0 mi NNW 11.5 mph - N/A   Overcast
12:55 PM 51.8 °F - 46.4 °F 82% 29.79 in 9.0 mi NNW 11.5 mph - N/A   Overcast
1:15 PM 51.8 °F - 46.4 °F 82% 29.79 in 8.0 mi NNW 12.7 mph - N/A   Overcast
1:35 PM 51.8 °F - 46.4 °F 82% 29.79 in 10.0 mi NNW 15.0 mph - N/A   Overcast
1:55 PM 51.8 °F - 46.4 °F 82% 29.78 in 10.0 mi NNW 15.0 mph - N/A   Overcast
2:35 PM 50.0 °F - 46.4 °F 87% 29.78 in 5.0 mi NNW 16.1 mph - N/A   Overcast
2:55 PM 50.0 °F - 46.4 °F 87% 29.78 in 4.0 mi NNW 16.1 mph - N/A   Overcast
3:15 PM 48.2 °F - 44.6 °F 87% 29.79 in 3.0 mi NW 13.8 mph - 0.01 in   Overcast
3:35 PM 48.2 °F - 44.6 °F 87% 29.80 in 2.5 mi NW 13.8 mph - 0.01 in   Overcast
3:55 PM 48.2 °F - 44.6 °F 87% 29.79 in 4.0 mi NW 16.1 mph - 0.02 in   Overcast
4:15 PM 48.2 °F - 44.6 °F 87% 29.80 in 9.0 mi NNW 16.1 mph - N/A   Overcast
4:35 PM 46.4 °F 39.5 °F 44.6 °F 93% 29.80 in 3.0 mi NW 17.3 mph 23.0 mph N/A   Overcast
4:55 PM 46.4 °F 39.0 °F 44.6 °F 93% 29.81 in 3.0 mi NW 19.6 mph - 0.01 in   Overcast
5:15 PM 46.4 °F 39.8 °F 42.8 °F 87% 29.82 in 5.0 mi NW 16.1 mph - N/A   Overcast
5:35 PM 46.4 °F 38.3 °F 42.8 °F 87% 29.82 in 6.0 mi NW 23.0 mph - N/A   Overcast
5:55 PM 46.4 °F 39.2 °F 42.8 °F 87% 29.82 in 5.0 mi NW 18.4 mph - N/A   Overcast
6:15 PM 46.4 °F 39.0 °F 42.8 °F 87% 29.82 in 4.0 mi NW 19.6 mph 26.5 mph N/A   Overcast
6:35 PM 46.4 °F 39.2 °F 42.8 °F 87% 29.82 in 7.0 mi NW 18.4 mph 26.5 mph N/A   Overcast
6:55 PM 46.4 °F 38.7 °F 42.8 °F 87% 29.82 in 10.0 mi NW 20.7 mph - N/A   Overcast
7:15 PM 46.4 °F 39.2 °F 42.8 °F 87% 29.83 in 10.0 mi NW 18.4 mph 24.2 mph N/A   Overcast
7:35 PM 46.4 °F 38.3 °F 42.8 °F 87% 29.84 in 10.0 mi NW 23.0 mph 26.5 mph N/A   Overcast
7:55 PM 46.4 °F 39.5 °F 42.8 °F 87% 29.84 in 10.0 mi NW 17.3 mph 25.3 mph N/A   Overcast
8:15 PM 46.4 °F 38.1 °F 42.8 °F 87% 29.85 in 10.0 mi NW 24.2 mph 31.1 mph N/A   Overcast
8:35 PM 46.4 °F 38.7 °F 41.0 °F 81% 29.85 in 10.0 mi NW 20.7 mph 29.9 mph N/A   Overcast
8:55 PM 44.6 °F 36.1 °F 41.0 °F 87% 29.86 in 10.0 mi NW 21.9 mph 31.1 mph N/A   Overcast
9:15 PM 44.6 °F 37.2 °F 41.0 °F 87% 29.87 in 10.0 mi NW 17.3 mph 31.1 mph N/A   Overcast
9:35 PM 46.4 °F 38.5 °F 39.2 °F 76% 29.89 in 10.0 mi NW 21.9 mph 32.2 mph N/A   Overcast
9:55 PM 46.4 °F 38.5 °F 41.0 °F 81% 29.90 in 10.0 mi NW 21.9 mph 27.6 mph N/A   Overcast
10:15 PM 46.4 °F 38.7 °F 39.2 °F 76% 29.90 in 10.0 mi NW 20.7 mph 24.2 mph N/A   Overcast
10:35 PM 46.4 °F 38.3 °F 39.2 °F 76% 29.91 in 10.0 mi NW 23.0 mph 29.9 mph N/A   Overcast
10:55 PM 46.4 °F 38.5 °F 39.2 °F 76% 29.92 in 10.0 mi NW 21.9 mph 28.8 mph N/A   Overcast
11:15 PM 44.6 °F 36.6 °F 39.2 °F 81% 29.93 in 10.0 mi NW 19.6 mph 26.5 mph N/A   Overcast
11:35 PM 44.6 °F 36.9 °F 39.2 °F 81% 29.94 in 10.0 mi NW 18.4 mph 26.5 mph N/A   Overcast
11:55 PM 44.6 °F 35.5 °F 39.2 °F 81% 29.93 in 10.0 mi NW 25.3 mph 32.2 mph N/A   Overcast